Lapse_Rate
5.8 5.6 5.7 5.6 5.4 5.4 5.5 5.5 5.4 5.5 5.4 5.1 5.2 5.3 5.3 5.2 5.2 5.2 5.2 5.4 5.3 5.4 5.3 5.3 5.3 5.4 5.3 5.2 5.3 5.4 5.5 5.4 5.4 5.4 5.5 5.5 5.7 6.0
5.9 5.8 5.6 5.7 5.7 5.4 5.4 5.5 5.3 5.4 5.6 5.2 5.0 5.1 5.2 5.2 5.3 5.1 5.1 5.3 5.3 5.3 5.4 5.4 5.4 5.4 5.4 5.2 5.3 5.5 5.5 5.5 5.5 5.4 5.4 5.7 6.0 6.2
5.8 5.8 5.7 5.5 5.7 5.2 5.4 5.5 5.2 5.1 5.4 5.4 5.1 5.2 5.1 5.2 5.3 5.1 5.1 5.3 5.2 5.3 5.4 5.5 5.5 5.6 5.5 5.4 5.6 5.6 5.4 5.4 5.4 5.4 5.7 5.9 6.2 6.4
6.1 5.9 5.9 5.7 5.7 5.6 5.6 5.5 5.1 5.2 5.4 5.5 5.2 5.4 5.3 5.0 5.2 5.2 5.1 5.3 5.2 5.2 5.2 5.4 5.5 5.5 5.5 5.4 5.5 5.5 5.4 5.2 5.4 5.4 5.8 6.1 6.3 6.4
6.5 6.3 6.2 6.0 6.0 5.6 5.7 5.5 5.2 5.4 5.5 5.6 5.3 5.5 5.4 5.1 5.3 5.3 5.1 5.2 5.1 5.0 5.1 5.3 5.4 5.4 5.3 5.2 5.1 5.2 5.4 5.3 5.4 5.8 5.9 6.2 6.4 6.6
6.8 6.5 6.4 6.6 5.9 6.1 5.7 5.5 5.5 5.7 5.7 5.5 5.3 5.5 5.4 5.3 5.3 5.3 5.2 5.1 5.1 5.0 5.1 5.5 5.3 5.3 5.2 5.1 5.2 5.4 5.4 5.5 5.6 5.8 6.1 6.3 6.5 6.6
7.1 6.7 6.7 6.5 6.4 6.2 6.1 5.8 5.7 5.9 5.8 5.6 5.3 5.4 5.4 5.2 5.4 5.3 5.3 5.2 5.3 5.3 5.3 5.5 5.2 5.5 5.5 5.6 5.7 5.7 5.7 5.7 5.8 6.1 6.2 6.4 6.5 6.8
7.3 7.5 6.9 6.6 6.4 6.6 6.7 6.4 6.0 6.1 6.0 5.7 5.4 5.2 5.1 5.2 5.3 5.2 5.2 5.0 5.3 5.3 5.5 5.8 5.7 5.8 5.8 5.9 6.0 5.9 5.9 5.7 5.9 6.2 6.4 6.8 7.1 7.0
7.0 7.1 7.0 7.2 6.8 6.6 6.7 6.6 6.4 6.5 6.1 5.5 5.6 5.3 5.2 5.2 5.2 5.2 5.0 5.0 5.1 5.0 5.3 5.6 5.6 5.8 5.7 6.0 6.0 6.0 5.9 5.8 6.2 6.7 6.9 7.0 6.8 6.9
7.0 7.1 7.0 7.2 7.2 7.0 6.7 6.6 6.3 6.0 6.0 5.6 5.6 5.3 5.2 5.1 5.1 5.1 5.0 5.1 4.8 5.0 5.1 5.7 5.5 5.7 5.9 6.2 6.1 6.1 6.1 6.3 6.6 6.6 6.7 6.8 6.7 6.9
7.2 7.3 7.3 7.2 7.3 7.2 7.2 7.1 6.4 5.9 5.9 5.4 5.2 5.1 5.1 5.1 5.0 4.9 5.0 4.9 5.0 5.1 5.2 5.3 5.5 5.8 6.1 6.4 6.6 6.4 6.2 6.1 6.3 6.5 6.7 6.6 6.5 6.7
7.1 7.1 7.3 7.5 7.4 7.4 7.4 7.0 6.6 5.9 5.5 5.3 5.1 5.2 5.2 5.4 5.1 5.1 4.9 5.1 5.1 5.1 5.1 5.3 5.5 5.6 6.1 6.6 6.4 5.8 5.8 5.9 6.4 6.3 6.4 6.4 6.3 6.5
7.4 7.4 7.5 7.4 7.5 7.4 7.2 7.0 6.4 5.6 5.3 5.3 5.1 5.0 5.4 5.3 5.2 5.1 4.9 4.9 5.0 4.9 4.9 5.0 5.2 5.4 5.7 6.0 6.2 5.7 5.7 6.0 6.1 6.4 6.6 6.5 6.1 5.8
7.1 7.3 7.4 7.4 7.4 7.3 6.9 6.3 6.5 5.8 5.3 5.1 4.9 5.0 5.3 5.3 5.4 5.1 4.9 4.9 4.7 4.7 4.8 4.9 5.1 5.3 5.4 5.6 5.6 5.7 5.8 6.2 6.2 6.5 6.7 6.6 6.2 5.9
6.8 6.9 7.1 6.9 6.8 6.5 6.4 5.9 6.1 5.6 4.9 4.9 5.0 5.0 5.2 5.2 4.7 4.7 4.7 4.5 4.4 4.6 4.6 4.8 4.9 4.9 4.9 4.9 5.1 5.2 5.7 6.4 6.3 6.6 6.7 6.8 6.3 5.8
6.1 5.4 5.4 5.6 5.9 5.9 5.7 6.2 5.0 4.6 4.2 4.5 4.7 4.7 4.8 4.8 4.6 4.6 4.2 4.1 4.2 4.2 4.2 4.3 4.4 4.5 4.6 4.7 4.9 5.2 5.4 5.8 6.6 6.7 6.9 7.0 6.1 5.3
4.5 4.5 4.5 4.9 4.7 4.7 4.6 4.2 4.2 4.1 4.2 4.4 4.5 4.5 4.6 4.4 4.1 4.1 4.0 4.1 4.2 4.4 4.4 4.1 4.1 4.5 4.7 4.7 5.1 5.1 5.6 6.1 6.4 6.5 6.7 7.1 6.2 5.4
4.2 3.9 3.7 3.9 3.9 4.0 3.9 3.7 3.9 4.0 4.2 4.3 4.3 4.1 4.0 4.0 4.0 3.9 4.1 4.3 4.3 4.1 4.2 4.4 4.6 4.8 4.9 5.3 5.3 5.5 5.9 6.2 6.2 6.0 5.9 6.3 6.5 5.5
4.2 4.2 4.1 4.1 4.0 3.9 3.9 3.9 4.0 4.0 4.0 4.0 3.8 3.8 3.8 3.9 3.9 3.8 4.0 4.2 4.2 4.2 4.0 3.9 4.4 4.5 5.1 5.4 5.5 4.9 5.6 5.7 6.1 6.1 5.3 5.4 5.5 5.3
4.9 4.6 4.4 4.3 4.2 4.2 4.2 4.2 4.2 4.2 4.2 4.1 4.0 4.0 3.9 3.7 3.7 3.9 4.2 4.2 4.1 4.0 3.8 4.0 4.3 4.5 4.8 5.1 5.2 5.2 4.9 5.6 5.6 5.4 5.5 5.8 5.5 5.2
5.3 4.8 4.7 4.7 4.7 4.6 4.5 4.5 4.4 4.4 4.3 4.2 4.0 3.8 3.8 3.9 4.0 3.9 3.9 3.9 4.1 4.2 4.1 4.2 4.4 4.6 4.7 4.9 5.1 5.4 5.5 5.0 4.4 4.4 4.7 5.1 5.4 5.9
4.9 4.7 4.6 4.7 4.7 4.7 4.7 4.5 4.4 4.2 4.1 4.0 4.0 3.8 3.7 3.6 3.6 3.7 4.0 4.1 3.8 3.8 4.2 4.2 4.4 4.5 4.7 5.1 5.4 5.6 5.8 5.5 4.7 4.5 4.1 3.8 4.5 5.1
5.2 5.1 5.1 5.0 4.8 4.7 4.5 4.2 4.0 3.8 3.7 3.7 3.7 3.7 3.7 3.8 3.7 3.7 3.8 3.9 3.8 4.0 4.3 4.3 4.3 4.4 4.9 5.1 5.4 5.6 5.6 5.7 5.9 5.6 4.8 4.4 5.1 5.3
Wind_Speed
7 8 4 4 4 3 2 2 3 3 4 3 3 7 7 8 9 8 8 9 13 15 15 18 18 19 21 23 24 26 27 29 30 31 31 33 33 33
6 8 6 4 5 4 4 3 2 3 2 3 4 2 6 7 8 8 9 10 12 13 16 18 20 20 22 23 25 28 29 30 31 32 32 33 34 34
8 10 9 7 6 6 4 3 3 3 3 2 1 2 3 6 6 6 8 8 10 13 17 19 19 19 20 24 27 30 32 32 32 32 32 32 32 33
12 10 10 6 9 8 6 7 6 5 3 4 4 4 4 3 4 7 7 7 10 14 18 18 17 16 22 26 30 31 32 32 32 32 31 31 31 33
13 14 12 11 10 8 8 7 6 4 4 3 4 2 2 3 1 5 7 8 8 15 18 13 14 19 24 28 31 31 31 32 31 29 30 32 33 35
11 12 12 14 13 11 10 9 7 6 5 3 3 3 3 3 2 4 4 4 8 12 10 8 19 21 24 25 29 30 29 28 30 31 32 33 35 37
9 11 11 13 17 16 9 10 9 7 5 5 4 3 3 3 3 1 3 8 8 3 4 11 14 16 17 20 27 26 28 31 31 32 33 35 37 39
11 11 10 14 15 20 20 19 17 11 9 5 4 4 3 3 2 1 3 3 4 2 6 11 11 7 14 18 29 32 30 30 30 31 33 36 41 44
10 8 8 8 14 12 18 17 18 19 9 8 5 6 4 5 3 1 1 3 4 7 7 8 7 8 15 20 34 30 26 26 28 32 36 39 42 41
10 10 11 10 11 12 11 10 10 10 8 6 6 5 5 7 4 3 2 5 8 7 4 4 4 8 14 22 29 23 19 25 34 36 34 37 42 42
8 9 10 10 17 21 12 11 9 7 12 10 10 11 10 8 6 3 2 3 3 3 2 3 5 11 9 9 14 13 23 31 29 32 34 38 41 40
7 8 16 13 19 23 13 13 12 11 11 9 8 10 9 7 6 3 2 3 2 4 1 6 7 7 7 4 8 19 19 22 29 35 33 33 35 24
6 6 7 18 18 21 19 12 12 12 14 9 7 5 5 5 5 4 4 3 3 4 4 6 5 6 5 8 9 12 15 19 22 24 24 27 34 31
8 6 7 17 18 19 18 13 14 17 8 7 6 5 4 3 3 3 4 6 8 11 17 11 4 7 8 10 9 11 13 19 18 12 16 29 32 32
6 9 13 16 16 14 18 16 20 8 8 7 6 3 3 3 2 1 3 7 10 11 10 10 8 8 8 9 11 13 17 10 12 13 13 13 16 16
9 7 8 10 10 11 11 10 5 6 7 7 5 5 4 2 1 2 2 4 4 4 7 7 12 11 9 10 12 15 12 10 17 17 17 16 13 17
8 5 5 7 8 7 7 7 7 6 6 6 5 4 4 2 1 1 1 2 3 7 8 7 14 14 14 13 12 11 12 13 13 17 20 19 16 15
8 7 7 7 9 9 9 8 6 8 6 6 5 5 4 2 1 0 1 2 5 7 8 8 10 10 8 7 16 11 12 13 15 16 15 16 20 18
6 8 8 9 9 9 9 9 7 7 8 6 5 4 4 2 1 1 2 3 5 7 8 8 8 8 10 11 8 15 11 15 15 15 14 14 17 20
7 8 8 8 9 9 8 8 8 7 6 6 5 4 3 2 1 1 2 2 5 7 8 7 7 7 9 10 12 16 22 13 14 16 17 17 18 34
7 7 7 8 8 8 8 7 8 7 6 6 5 4 3 2 1 2 2 7 9 6 8 9 9 23 11 12 10 12 12 24 24 17 18 16 14 16
8 9 8 8 8 8 8 7 6 6 6 5 5 4 3 2 2 2 3 4 6 6 7 8 10 9 8 9 13 17 14 13 24 27 28 22 10 12
8 9 8 8 8 8 7 6 6 5 4 4 4 3 2 1 2 3 4 5 6 7 8 9 8 8 9 9 15 14 21 19 13 17 15 21 28 27
Wind_Direction
177 177 170 167 183 184 164 172 153 175 220 198 194 196 195 201 218 242 283 313 318 319 315 312 313 315 313 308 307 309 311 310 308 308 308 307 305 304
181 183 183 161 179 182 189 175 202 173 186 171 204 171 197 212 227 247 282 310 306 309 308 308 312 314 312 308 309 309 310 308 307 308 308 307 306 304
187 190 189 173 180 185 179 178 189 193 180 153 189 183 213 225 233 257 289 304 302 303 305 309 311 312 307 307 308 309 309 309 309 310 310 308 304 301
192 186 196 181 188 188 177 193 203 193 169 171 185 195 212 232 248 281 289 291 296 299 302 304 305 308 312 309 308 309 308 309 311 312 309 304 303 303
193 193 191 184 196 183 186 192 205 179 183 160 171 192 198 237 271 274 280 293 293 296 301 305 306 310 309 309 307 306 309 311 312 310 306 305 305 304
195 199 189 191 192 190 184 191 189 187 175 181 199 194 204 196 230 275 294 297 310 303 291 292 302 306 304 307 302 306 312 311 308 306 304 306 307 305
191 197 200 201 197 190 182 181 179 182 180 191 204 186 198 203 226 223 299 312 310 249 306 308 308 305 302 302 300 307 311 309 307 304 305 306 305 304
194 199 200 194 199 197 199 187 184 180 187 185 194 213 202 200 190 274 319 345 318 168 332 302 311 299 302 301 298 307 309 307 304 305 305 306 307 307
188 189 197 202 195 195 204 197 197 197 183 182 180 199 186 184 163 178 261 270 261 291 310 286 307 297 306 298 297 304 306 304 306 307 306 306 302 304
184 187 195 190 192 189 187 182 187 195 186 175 186 170 152 163 172 176 243 283 281 273 255 276 301 295 303 289 290 294 295 302 306 305 305 304 302 305
186 188 192 187 188 191 179 175 172 178 176 169 157 150 152 161 162 163 285 318 310 291 26 317 310 313 303 286 277 276 300 300 299 302 303 305 303 307
178 186 197 190 196 194 183 177 179 178 160 157 152 143 136 137 137 139 169 262 284 295 170 335 329 349 319 260 285 303 296 298 301 303 303 303 307 307
182 183 197 205 202 199 192 190 191 158 162 148 140 143 140 144 139 160 214 234 235 250 292 344 304 316 295 308 310 297 299 307 302 301 301 305 307 309
185 188 194 205 201 199 190 199 174 157 147 147 142 152 154 161 153 192 244 259 257 259 287 297 276 296 300 305 298 314 312 310 302 305 306 311 308 309
177 179 180 194 188 194 174 181 162 152 147 144 148 142 134 141 172 325 289 300 293 283 280 279 271 288 288 283 289 304 315 311 301 313 309 317 315 316
168 167 171 164 164 141 149 147 130 138 138 131 124 123 129 139 113 10 318 336 316 309 314 293 289 283 285 281 286 294 300 308 312 314 316 316 309 304
136 138 148 138 141 125 116 118 119 112 113 117 130 136 136 143 140 344 331 341 319 315 316 319 310 291 282 282 285 288 299 299 305 312 319 312 310 308
146 153 150 145 143 139 134 124 121 120 126 133 138 143 148 148 143 357 332 319 315 314 313 315 320 327 321 275 276 296 303 302 306 305 306 306 308 313
167 165 155 153 147 143 139 141 140 138 137 142 149 148 147 151 115 317 325 325 318 315 312 314 313 316 320 317 291 285 309 303 303 308 308 306 302 303
158 152 150 148 145 141 139 135 129 137 145 146 147 151 152 153 173 276 327 315 312 312 317 312 308 312 311 311 302 299 295 298 306 310 313 309 295 292
129 128 134 133 130 130 129 128 136 145 151 150 153 150 155 166 227 269 297 317 324 316 309 311 310 308 299 293 297 300 306 311 309 310 313 312 312 315
135 132 129 126 127 128 126 130 138 142 150 155 151 151 163 186 233 271 294 305 305 301 292 295 305 304 306 310 303 306 309 311 312 307 307 297 302 304
124 123 124 124 125 125 129 133 142 147 148 146 150 160 173 220 239 261 280 293 296 300 301 308 309 306 308 306 309 308 313 323 325 329 317 317 317 312